Location: Unspecified
(0.0000°N, 0.0000°E)
Time: 01:11:31
(UTC+00:00)

deb Kosmos-1275 - Pass Details

Date: 09 March 2026
Orbit: 924 x 993 km, 82.9° (Epoch: 14 April)

Event Time Altitude Azimuth Distance (km) Brightness Sun altitude
Rises 19:23:39 0° 335° (NNW) 3,615 ? -18.2°
Reaches altitude 10° 19:26:28 10° 324° (NW) 2,684 ? -18.9°
Maximum altitude 19:31:37 29° 267° (W) 1,713 ? -20.2°
Drops below altitude 10° 19:36:53 10° 209° (SSW) 2,731 ? -21.5°
Sets 19:39:47 0° 198° (SSW) 3,690 ? -22.3°
